| time (UTC) | temp F | wind direction | speed knots | gust knots | rain 1hr in | rain 24hr in | rain mn in | humidity % | barometer mb |
| 20260507114930 | 64 | -1 | 9.6 | 16.5 | 0.00 | 0.00 | 0.00 | 5 | 1005.0 |
| 20260507114429 | 64 | -1 | 7.0 | 13.9 | 0.00 | 0.00 | 0.00 | 5 | 1005.1 |
| 20260507113928 | 64 | -1 | 9.6 | 17.4 | 0.00 | 0.00 | 0.00 | 5 | 1005.0 |
| 20260507113428 | 64 | -1 | 8.7 | 19.1 | 0.00 | 0.00 | 0.00 | 5 | 1005.1 |
| 20260507112927 | 66 | -1 | 8.7 | 13.9 | 0.00 | 0.00 | 0.00 | 5 | 1004.7 |
| 20260507112426 | 67 | -1 | 7.0 | 13.9 | 0.00 | 0.00 | 0.00 | 5 | 1004.3 |
| 20260507111926 | 66 | -1 | 7.8 | 16.5 | 0.00 | 0.00 | 0.00 | 5 | 1004.6 |
| 20260507111425 | 67 | -1 | 7.0 | 17.4 | 0.00 | 0.00 | 0.00 | 5 | 1004.5 |
| 20260507110924 | 67 | -1 | 7.8 | 17.4 | 0.00 | 0.00 | 0.00 | 5 | 1004.5 |
| 20260507110423 | 66 | -1 | 6.1 | 14.8 | 0.00 | 0.00 | 0.00 | 5 | 1004.5 |
| 20260507105923 | 69 | -1 | 6.1 | 12.2 | 0.00 | 0.00 | 0.00 | 5 | 1004.0 |
| 20260507105422 | 66 | -1 | 7.8 | 18.2 | 0.00 | 0.00 | 0.00 | 5 | 1004.4 |
| 20260507104921 | 66 | -1 | 7.0 | 13.9 | 0.00 | 0.00 | 0.00 | 5 | 1004.5 |
| 20260507104420 | 63 | -1 | 7.8 | 16.5 | 0.00 | 0.00 | 0.00 | 6 | 1004.9 |
| 20260507103920 | 62 | -1 | 8.7 | 16.5 | 0.00 | 0.00 | 0.00 | 5 | 1005.1 |
| 20260507103419 | 64 | -1 | 7.0 | 14.8 | 0.00 | 0.00 | 0.00 | 5 | 1004.7 |
| 20260507102918 | 65 | -1 | 7.8 | 13.9 | 0.00 | 0.00 | 0.00 | 5 | 1004.7 |
| 20260507102418 | 64 | -1 | 7.0 | 12.2 | 0.00 | 0.00 | 0.00 | 5 | 1004.7 |
| 20260507101917 | 64 | -1 | 7.8 | 16.5 | 0.00 | 0.00 | 0.00 | 5 | 1004.8 |
| 20260507101416 | 64 | -1 | 7.8 | 17.4 | 0.00 | 0.00 | 0.00 | 5 | 1004.6 |
| 20260507100915 | 64 | -1 | 7.0 | 17.4 | 0.00 | 0.00 | 0.00 | 5 | 1004.5 |
| 20260507100415 | 63 | -1 | 7.8 | 24.3 | 0.00 | 0.00 | 0.00 | 5 | 1004.7 |
| 20260507095914 | 63 | -1 | 7.8 | 18.2 | 0.00 | 0.00 | 0.00 | 6 | 1004.6 |
| 20260507095413 | 62 | -1 | 7.0 | 14.8 | 0.00 | 0.00 | 0.00 | 6 | 1004.8 |
| 20260507094913 | 63 | -1 | 10.4 | 23.5 | 0.00 | 0.00 | 0.00 | 6 | 1004.6 |
| 20260507094412 | 63 | -1 | 8.7 | 20.0 | 0.00 | 0.00 | 0.00 | 6 | 1004.4 |
| 20260507093911 | 63 | -1 | 9.6 | 20.9 | 0.00 | 0.00 | 0.00 | 6 | 1004.4 |
| 20260507093410 | 64 | -1 | 10.4 | 22.6 | 0.00 | 0.00 | 0.00 | 5 | 1004.1 |
| 20260507092910 | 66 | -1 | 9.6 | 17.4 | 0.00 | 0.00 | 0.00 | 5 | 1003.8 |
| 20260507092409 | 65 | -1 | 10.4 | 20.9 | 0.00 | 0.00 | 0.00 | 5 | 1003.7 |
| 20260507091908 | 66 | -1 | 8.7 | 18.2 | 0.00 | 0.00 | 0.00 | 5 | 1003.6 |
| 20260507091408 | 66 | -1 | 7.8 | 13.9 | 0.00 | 0.00 | 0.00 | 5 | 1003.7 |
| 20260507090907 | 67 | -1 | 7.8 | 19.1 | 0.00 | 0.00 | 0.00 | 5 | 1003.4 |
| 20260507090406 | 65 | -1 | 8.7 | 20.0 | 0.00 | 0.00 | 0.00 | 6 | 1003.8 |
| 20260507085905 | 64 | -1 | 7.0 | 16.5 | 0.00 | 0.00 | 0.00 | 6 | 1003.7 |
| 20260507085405 | 63 | -1 | 11.3 | 23.5 | 0.00 | 0.00 | 0.00 | 6 | 1004.1 |
| 20260507084904 | 63 | -1 | 7.8 | 18.2 | 0.00 | 0.00 | 0.00 | 6 | 1004.0 |
| 20260507084403 | 64 | -1 | 7.8 | 17.4 | 0.00 | 0.00 | 0.00 | 6 | 1003.5 |
| 20260507083902 | 64 | -1 | 8.7 | 17.4 | 0.00 | 0.00 | 0.00 | 6 | 1003.6 |
| 20260507083402 | 64 | -1 | 7.8 | 18.2 | 0.00 | 0.00 | 0.00 | 6 | 1003.7 |
| 20260507082901 | 63 | -1 | 8.7 | 16.5 | 0.00 | 0.00 | 0.00 | 6 | 1003.8 |
| 20260507082400 | 61 | -1 | 7.8 | 15.6 | 0.00 | 0.00 | 0.00 | 6 | 1004.1 |
| 20260507081859 | 61 | -1 | 8.7 | 15.6 | 0.00 | 0.00 | 0.00 | 6 | 1003.9 |
| 20260507081359 | 62 | -1 | 7.8 | 19.1 | 0.00 | 0.00 | 0.00 | 6 | 1003.6 |
| 20260507080858 | 62 | -1 | 8.7 | 16.5 | 0.00 | 0.00 | 0.00 | 6 | 1003.6 |
| 20260507080357 | 60 | -1 | 9.6 | 21.7 | 0.00 | 0.00 | 0.00 | 7 | 1003.9 |
| 20260507075857 | 61 | -1 | 10.4 | 20.0 | 0.00 | 0.00 | 0.00 | 6 | 1003.7 |
| 20260507075356 | 62 | -1 | 7.8 | 18.2 | 0.00 | 0.00 | 0.00 | 6 | 1003.5 |
| 20260507074855 | 62 | -1 | 7.0 | 15.6 | 0.00 | 0.00 | 0.00 | 6 | 1003.4 |
| 20260507074354 | 61 | -1 | 7.8 | 17.4 | 0.00 | 0.00 | 0.00 | 7 | 1003.6 |
| 20260507073854 | 61 | -1 | 8.7 | 18.2 | 0.00 | 0.00 | 0.00 | 7 | 1003.4 |
| 20260507073353 | 61 | -1 | 7.8 | 20.0 | 0.00 | 0.00 | 0.00 | 7 | 1003.4 |
| 20260507072852 | 61 | -1 | 7.0 | 18.2 | 0.00 | 0.00 | 0.00 | 7 | 1003.3 |
| 20260507072351 | 61 | -1 | 8.7 | 16.5 | 0.00 | 0.00 | 0.00 | 7 | 1003.4 |
| 20260507071851 | 61 | -1 | 8.7 | 16.5 | 0.00 | 0.00 | 0.00 | 7 | 1003.3 |
| 20260507071350 | 61 | -1 | 9.6 | 17.4 | 0.00 | 0.00 | 0.00 | 7 | 1003.3 |
| 20260507070849 | 62 | -1 | 9.6 | 15.6 | 0.00 | 0.00 | 0.00 | 6 | 1003.0 |
| 20260507070348 | 61 | -1 | 8.7 | 15.6 | 0.00 | 0.00 | 0.00 | 7 | 1003.2 |
| 20260507065848 | 62 | -1 | 8.7 | 14.8 | 0.00 | 0.00 | 0.00 | 7 | 1003.0 |
| 20260507065347 | 60 | -1 | 8.7 | 14.8 | 0.00 | 0.00 | 0.00 | 7 | 1003.3 |
| 20260507064846 | 59 | -1 | 8.7 | 17.4 | 0.00 | 0.00 | 0.00 | 7 | 1003.4 |
| 20260507064346 | 60 | -1 | 10.4 | 22.6 | 0.00 | 0.00 | 0.00 | 7 | 1003.3 |
| 20260507063845 | 60 | -1 | 10.4 | 20.9 | 0.00 | 0.00 | 0.00 | 7 | 1003.0 |
| 20260507063344 | 59 | -1 | 9.6 | 20.0 | 0.00 | 0.00 | 0.00 | 7 | 1003.3 |
| 20260507062843 | 59 | -1 | 7.8 | 12.2 | 0.00 | 0.00 | 0.00 | 7 | 1003.2 |
| 20260507062343 | 60 | -1 | 7.0 | 13.0 | 0.00 | 0.00 | 0.00 | 7 | 1002.9 |
| 20260507061842 | 59 | -1 | 7.8 | 17.4 | 0.00 | 0.00 | 0.00 | 7 | 1002.9 |
| 20260507061341 | 59 | -1 | 8.7 | 17.4 | 0.00 | 0.00 | 0.00 | 7 | 1002.9 |
| 20260507060841 | 60 | -1 | 8.7 | 20.0 | 0.00 | 0.00 | 0.00 | 7 | 1002.7 |
| 20260507060340 | 59 | -1 | 8.7 | 18.2 | 0.00 | 0.00 | 0.00 | 8 | 1002.8 |
| 20260507055839 | 60 | -1 | 7.8 | 17.4 | 0.00 | 0.00 | 0.00 | 8 | 1002.6 |
| 20260507055338 | 61 | -1 | 7.0 | 17.4 | 0.00 | 0.00 | 0.00 | 7 | 1002.3 |
| 20260507054838 | 61 | -1 | 5.2 | 12.2 | 0.00 | 0.00 | 0.00 | 7 | 1002.3 |
| 20260507054337 | 59 | -1 | 7.0 | 11.3 | 0.00 | 0.00 | 0.00 | 8 | 1002.4 |
| 20260507053836 | 59 | -1 | 7.8 | 13.9 | 0.00 | 0.00 | 0.00 | 8 | 1002.4 |
| 20260507053336 | 59 | -1 | 8.7 | 17.4 | 0.00 | 0.00 | 0.00 | 8 | 1002.3 |
| 20260507052835 | 59 | -1 | 7.8 | 14.8 | 0.00 | 0.00 | 0.00 | 8 | 1002.3 |
| 20260507052334 | 59 | -1 | 7.0 | 13.0 | 0.00 | 0.00 | 0.00 | 8 | 1002.2 |
| 20260507051833 | 58 | -1 | 7.8 | 14.8 | 0.00 | 0.00 | 0.00 | 8 | 1002.3 |
| 20260507051333 | 59 | -1 | 6.1 | 12.2 | 0.00 | 0.00 | 0.00 | 8 | 1002.1 |
| 20260507050832 | 58 | -1 | 6.1 | 12.2 | 0.00 | 0.00 | 0.00 | 8 | 1002.2 |
| 20260507050331 | 58 | -1 | 5.2 | 9.6 | 0.00 | 0.00 | 0.00 | 8 | 1002.2 |
| 20260507045831 | 56 | -1 | 5.2 | 11.3 | 0.00 | 0.00 | 0.00 | 9 | 1002.5 |
| 20260507045330 | 57 | -1 | 4.3 | 8.7 | 0.00 | 0.00 | 0.00 | 9 | 1002.2 |
| 20260507044829 | 56 | -1 | 5.2 | 11.3 | 0.00 | 0.00 | 0.00 | 9 | 1002.3 |
| 20260507044328 | 56 | 180 | 5.2 | 13.0 | 0.00 | 0.00 | 0.00 | 9 | 1002.3 |
| 20260507043828 | 57 | -1 | 4.3 | 8.7 | 0.00 | 0.00 | 0.00 | 9 | 1002.2 |
| 20260507043327 | 57 | -1 | 5.2 | 10.4 | 0.00 | 0.00 | 0.00 | 8 | 1002.1 |
| 20260507042826 | 56 | -1 | 5.2 | 9.6 | 0.00 | 0.00 | 0.00 | 9 | 1002.3 |
| 20260507042326 | 56 | -1 | 6.1 | 10.4 | 0.00 | 0.00 | 0.00 | 9 | 1002.2 |
| 20260507041825 | 56 | -1 | 5.2 | 9.6 | 0.00 | 0.00 | 0.00 | 9 | 1002.2 |
| 20260507041324 | 55 | -1 | 7.0 | 13.0 | 0.00 | 0.00 | 0.00 | 9 | 1002.3 |
| 20260507040823 | 56 | 180 | 7.0 | 13.0 | 0.00 | 0.00 | 0.00 | 9 | 1002.2 |
| 20260507040323 | 56 | -1 | 5.2 | 12.2 | 0.00 | 0.00 | 0.00 | 9 | 1002.2 |
| 20260507035822 | 56 | -1 | 7.0 | 13.0 | 0.00 | 0.00 | 0.00 | 9 | 1002.2 |
| 20260507035321 | 55 | -1 | 6.1 | 11.3 | 0.00 | 0.00 | 0.00 | 9 | 1002.2 |
| 20260507034820 | 55 | -1 | 7.0 | 13.0 | 0.00 | 0.00 | 0.00 | 9 | 1002.2 |
| 20260507034320 | 55 | -1 | 7.0 | 11.3 | 0.00 | 0.00 | 0.00 | 9 | 1002.1 |
| 20260507033819 | 55 | -1 | 7.0 | 12.2 | 0.00 | 0.00 | 0.00 | 9 | 1002.2 |
| 20260507033318 | 55 | -1 | 6.1 | 13.9 | 0.00 | 0.00 | 0.00 | 9 | 1002.1 |
| 20260507032818 | 55 | -1 | 7.8 | 16.5 | 0.00 | 0.00 | 0.00 | 9 | 1002.1 |
| 20260507032317 | 55 | -1 | 7.0 | 13.9 | 0.00 | 0.00 | 0.00 | 9 | 1002.2 |
| 20260507031816 | 55 | -1 | 6.1 | 11.3 | 0.00 | 0.00 | 0.00 | 9 | 1002.2 |
| 20260507031315 | 55 | -1 | 6.1 | 11.3 | 0.00 | 0.00 | 0.00 | 9 | 1002.2 |
| 20260507030815 | 55 | -1 | 7.0 | 10.4 | 0.00 | 0.00 | 0.00 | 9 | 1002.3 |
| 20260507030314 | 55 | -1 | 7.0 | 13.0 | 0.00 | 0.00 | 0.00 | 9 | 1002.3 |
| 20260507025813 | 55 | -1 | 7.8 | 14.8 | 0.00 | 0.00 | 0.00 | 9 | 1002.2 |
| 20260507025313 | 55 | -1 | 7.0 | 11.3 | 0.00 | 0.00 | 0.00 | 9 | 1002.3 |
| 20260507024812 | 54 | -1 | 7.8 | 13.9 | 0.00 | 0.00 | 0.00 | 9 | 1002.2 |
| 20260507024311 | 54 | -1 | 7.8 | 15.6 | 0.00 | 0.00 | 0.00 | 9 | 1002.2 |
| 20260507023810 | 54 | -1 | 7.8 | 14.8 | 0.00 | 0.00 | 0.00 | 9 | 1002.1 |
| 20260507023310 | 54 | -1 | 7.8 | 13.9 | 0.00 | 0.00 | 0.00 | 9 | 1002.1 |
| 20260507022809 | 54 | -1 | 7.8 | 13.0 | 0.00 | 0.00 | 0.00 | 9 | 1002.1 |
| 20260507022308 | 54 | -1 | 7.8 | 14.8 | 0.00 | 0.00 | 0.00 | 9 | 1002.1 |
| 20260507021807 | 54 | -1 | 7.8 | 12.2 | 0.00 | 0.00 | 0.00 | 9 | 1002.0 |
| 20260507021307 | 54 | -1 | 7.0 | 12.2 | 0.00 | 0.00 | 0.00 | 9 | 1002.0 |
| 20260507020806 | 55 | -1 | 6.1 | 11.3 | 0.00 | 0.00 | 0.00 | 9 | 1001.9 |
| 20260507020305 | 54 | -1 | 6.1 | 13.9 | 0.00 | 0.00 | 0.00 | 9 | 1002.0 |
| 20260507015805 | 55 | -1 | 5.2 | 10.4 | 0.00 | 0.00 | 0.00 | 9 | 1001.9 |
| 20260507015306 | 55 | -1 | 6.1 | 11.3 | 0.00 | 0.00 | 0.00 | 9 | 1001.8 |
| 20260507014803 | 55 | -1 | 6.1 | 11.3 | 0.00 | 0.00 | 0.00 | 9 | 1001.8 |
| 20260507014302 | 55 | -1 | 5.2 | 11.3 | 0.00 | 0.00 | 0.00 | 9 | 1001.7 |
| 20260507013802 | 55 | -1 | 5.2 | 11.3 | 0.00 | 0.00 | 0.00 | 9 | 1001.4 |
| 20260507013301 | 55 | -1 | 5.2 | 9.6 | 0.00 | 0.00 | 0.00 | 9 | 1001.4 |
| 20260507012800 | 55 | -1 | 5.2 | 9.6 | 0.00 | 0.00 | 0.00 | 9 | 1001.4 |
| 20260507012300 | 55 | -1 | 6.1 | 9.6 | 0.00 | 0.00 | 0.00 | 9 | 1001.4 |
| 20260507011759 | 55 | -1 | 5.2 | 10.4 | 0.00 | 0.00 | 0.00 | 9 | 1001.4 |
| 20260507011258 | 55 | -1 | 5.2 | 10.4 | 0.00 | 0.00 | 0.00 | 9 | 1001.4 |
| 20260507010757 | 55 | -1 | 6.1 | 12.2 | 0.00 | 0.00 | 0.00 | 9 | 1001.3 |
| 20260507010257 | 56 | -1 | 6.1 | 10.4 | 0.00 | 0.00 | 0.00 | 9 | 1001.2 |
| 20260507005756 | 56 | -1 | 7.0 | 13.0 | 0.00 | 0.00 | 0.00 | 9 | 1001.3 |
| 20260507005255 | 56 | -1 | 6.1 | 10.4 | 0.00 | 0.00 | 0.00 | 9 | 1001.3 |
| 20260507004754 | 56 | -1 | 7.8 | 14.8 | 0.00 | 0.00 | 0.00 | 9 | 1001.3 |
| 20260507004254 | 56 | -1 | 7.0 | 12.2 | 0.00 | 0.00 | 0.00 | 9 | 1001.3 |
| 20260507003753 | 57 | -1 | 4.3 | 10.4 | 0.00 | 0.00 | 0.00 | 9 | 1001.0 |
| 20260507003252 | 56 | -1 | 3.5 | 6.1 | 0.00 | 0.00 | 0.00 | 9 | 1000.9 |
| 20260507002751 | 56 | -1 | 5.2 | 9.6 | 0.00 | 0.00 | 0.00 | 9 | 1001.0 |
| 20260507002251 | 57 | -1 | 5.2 | 9.6 | 0.00 | 0.00 | 0.00 | 9 | 1000.7 |
| 20260507001750 | 56 | -1 | 5.2 | 11.3 | 0.00 | 0.00 | 0.00 | 9 | 1000.7 |
| 20260507001249 | 57 | -1 | 5.2 | 9.6 | 0.00 | 0.00 | 0.00 | 9 | 1000.6 |
| 20260507000749 | 57 | -1 | 2.6 | 7.0 | 0.00 | 0.00 | 0.00 | 9 | 1000.6 |
| 20260507000248 | 56 | -1 | 2.6 | 7.0 | 0.00 | 0.00 | 0.00 | 9 | 1000.6 |
| 20260506235747 | 56 | -1 | 2.6 | 6.1 | 0.00 | 0.00 | 0.15 | 9 | 1000.7 |
| 20260506235246 | 55 | -1 | 5.2 | 8.7 | 0.00 | 0.00 | 0.15 | 10 | 1000.9 |
| 20260506234746 | 55 | -1 | 5.2 | 8.7 | 0.00 | 0.00 | 0.15 | 10 | 1000.9 |
| 20260506234245 | 55 | -1 | 5.2 | 9.6 | 0.00 | 0.00 | 0.15 | 10 | 1000.9 |
| 20260506233745 | 56 | -1 | 3.5 | 7.8 | 0.00 | 0.00 | 0.15 | 10 | 1000.7 |
| 20260506233244 | 56 | -1 | 5.2 | 12.2 | 0.00 | 0.00 | 0.15 | 10 | 1000.7 |
| 20260506232743 | 56 | -1 | 5.2 | 11.3 | 0.00 | 0.00 | 0.15 | 10 | 1000.7 |
| 20260506232243 | 56 | -1 | 4.3 | 9.6 | 0.00 | 0.00 | 0.15 | 9 | 1000.7 |
| 20260506231742 | 57 | -1 | 5.2 | 11.3 | 0.00 | 0.00 | 0.15 | 9 | 1000.5 |
| 20260506231241 | 57 | -1 | 5.2 | 9.6 | 0.00 | 0.00 | 0.15 | 9 | 1000.4 |
| 20260506230741 | 57 | -1 | 4.3 | 8.7 | 0.00 | 0.00 | 0.15 | 9 | 1000.4 |
| 20260506230240 | 57 | -1 | 3.5 | 7.8 | 0.00 | 0.00 | 0.15 | 9 | 1000.4 |
| 20260506225739 | 56 | -1 | 5.2 | 10.4 | 0.00 | 0.00 | 0.15 | 10 | 1000.5 |
| 20260506225239 | 57 | -1 | 6.1 | 12.2 | 0.00 | 0.00 | 0.15 | 9 | 1000.5 |
| 20260506224738 | 56 | -1 | 5.2 | 9.6 | 0.00 | 0.00 | 0.15 | 10 | 1000.6 |
| 20260506224237 | 57 | -1 | 4.3 | 8.7 | 0.00 | 0.00 | 0.15 | 9 | 1000.4 |
| 20260506223737 | 57 | -1 | 3.5 | 6.1 | 0.00 | 0.00 | 0.15 | 9 | 1000.3 |
| 20260506223236 | 57 | -1 | 3.5 | 6.1 | 0.00 | 0.00 | 0.15 | 10 | 1000.4 |
| 20260506222735 | 56 | -1 | 4.3 | 7.0 | 0.00 | 0.00 | 0.14 | 10 | 1000.5 |
| 20260506222235 | 57 | -1 | 2.6 | 5.2 | 0.00 | 0.00 | 0.14 | 10 | 1000.3 |
| 20260506221734 | 57 | -1 | 3.5 | 7.8 | 0.00 | 0.00 | 0.14 | 10 | 1000.3 |
| 20260506221233 | 57 | -1 | 3.5 | 8.7 | 0.00 | 0.00 | 0.14 | 9 | 1000.3 |
| 20260506220733 | 57 | -1 | 4.3 | 9.6 | 0.00 | 0.00 | 0.14 | 10 | 1000.3 |
| 20260506220232 | 56 | -1 | 5.2 | 11.3 | 0.00 | 0.00 | 0.14 | 10 | 1000.4 |
| 20260506215731 | 56 | -1 | 5.2 | 10.4 | 0.00 | 0.00 | 0.13 | 10 | 1000.5 |
| 20260506215231 | 57 | -1 | 5.2 | 10.4 | 0.00 | 0.00 | 0.13 | 9 | 1000.4 |
| 20260506214730 | 57 | -1 | 5.2 | 10.4 | 0.00 | 0.00 | 0.12 | 10 | 1000.6 |
| 20260506214229 | 57 | -1 | 6.1 | 13.0 | 0.00 | 0.00 | 0.12 | 9 | 1000.5 |
| 20260506213729 | 57 | -1 | 6.1 | 12.2 | 0.00 | 0.00 | 0.11 | 9 | 1000.6 |
| 20260506213228 | 58 | -1 | 5.2 | 11.3 | 0.00 | 0.00 | 0.11 | 9 | 1000.4 |
| 20260506212727 | 58 | -1 | 4.3 | 12.2 | 0.00 | 0.00 | 0.10 | 9 | 1000.3 |
| 20260506212226 | 59 | -1 | 5.2 | 12.2 | 0.00 | 0.00 | 0.10 | 9 | 1000.2 |
| 20260506211726 | 59 | -1 | 5.2 | 9.6 | 0.00 | 0.00 | 0.10 | 9 | 1000.2 |
| 20260506211225 | 59 | -1 | 4.3 | 12.2 | 0.00 | 0.00 | 0.10 | 9 | 1000.1 |
| 20260506210724 | 59 | -1 | 6.1 | 12.2 | 0.00 | 0.00 | 0.09 | 9 | 1000.0 |
| 20260506210224 | 60 | -1 | 0.0 | 0.0 | 0.00 | 0.00 | 0.09 | 9 | 999.6 |
| 20260506205723 | 61 | -1 | 0.0 | 0.0 | 0.00 | 0.00 | 0.09 | 9 | 999.3 |
| 20260506205222 | 61 | -1 | 0.0 | 0.0 | 0.00 | 0.00 | 0.09 | 9 | 999.2 |
| 20260506204721 | 61 | -1 | 0.0 | 0.0 | 0.00 | 0.00 | 0.09 | 9 | 999.1 |
| 20260506204221 | 61 | -1 | 0.0 | 0.0 | 0.00 | 0.00 | 0.09 | 9 | 999.1 |
| 20260506203720 | 60 | -1 | 0.0 | 0.0 | 0.00 | 0.00 | 0.09 | 9 | 999.1 |
| 20260506203219 | 60 | -1 | 2.6 | 3.5 | 0.00 | 0.00 | 0.09 | 9 | 999.2 |
| 20260506202718 | 60 | -1 | 5.2 | 9.6 | 0.00 | 0.00 | 0.09 | 9 | 999.4 |
| 20260506202218 | 60 | -1 | 4.3 | 7.8 | 0.00 | 0.00 | 0.09 | 9 | 999.3 |
| 20260506201717 | 60 | -1 | 4.3 | 7.8 | 0.00 | 0.00 | 0.09 | 9 | 999.4 |
| 20260506201216 | 60 | -1 | 5.2 | 9.6 | 0.00 | 0.00 | 0.08 | 9 | 999.3 |
| 20260506200716 | 61 | -1 | 4.3 | 6.1 | 0.00 | 0.00 | 0.08 | 9 | 999.1 |
| 20260506200215 | 62 | -1 | 0.0 | 0.0 | 0.00 | 0.00 | 0.08 | 9 | 998.8 |
| 20260506195714 | 61 | -1 | 0.0 | 0.0 | 0.00 | 0.00 | 0.08 | 10 | 998.7 |
| 20260506195213 | 62 | -1 | 0.0 | 0.0 | 0.00 | 0.00 | 0.08 | 10 | 998.6 |
| 20260506194713 | 59 | -1 | 2.6 | 0.0 | 0.00 | 0.00 | 0.08 | 10 | 998.9 |
| 20260506194212 | 60 | -1 | 0.0 | 2.6 | 0.00 | 0.00 | 0.07 | 10 | 998.9 |
| 20260506193711 | 60 | -1 | 2.6 | 0.0 | 0.00 | 0.00 | 0.06 | 10 | 999.0 |
| 20260506193210 | 60 | -1 | 0.0 | 2.6 | 0.00 | 0.00 | 0.06 | 10 | 998.9 |
| 20260506192710 | 60 | -1 | 0.0 | 0.0 | 0.00 | 0.00 | 0.06 | 10 | 998.8 |
| 20260506192209 | 60 | -1 | 0.0 | 0.0 | 0.00 | 0.00 | 0.06 | 10 | 998.9 |
| 20260506191708 | 59 | -1 | 2.6 | 3.5 | 0.00 | 0.00 | 0.06 | 10 | 998.9 |
| 20260506191208 | 59 | -1 | 2.6 | 3.5 | 0.00 | 0.00 | 0.06 | 10 | 998.8 |
| 20260506190707 | 60 | -1 | 0.0 | 0.0 | 0.00 | 0.00 | 0.06 | 10 | 998.5 |
| 20260506190206 | 59 | -1 | 0.0 | 0.0 | 0.00 | 0.00 | 0.06 | 10 | 998.6 |
| 20260506185706 | 59 | -1 | 0.0 | 0.0 | 0.00 | 0.00 | 0.06 | 10 | 998.5 |
| 20260506185205 | 60 | -1 | 0.0 | 0.0 | 0.00 | 0.00 | 0.06 | 10 | 998.3 |
| 20260506184704 | 60 | -1 | 0.0 | 0.0 | 0.00 | 0.00 | 0.06 | 10 | 998.2 |
| 20260506184204 | 60 | -1 | 0.0 | 0.0 | 0.00 | 0.00 | 0.06 | 10 | 998.3 |
| 20260506183703 | 60 | -1 | 0.0 | 0.0 | 0.00 | 0.00 | 0.06 | 10 | 998.2 |
| 20260506183202 | 60 | -1 | 0.0 | 0.0 | 0.00 | 0.00 | 0.06 | 10 | 998.2 |
| 20260506182702 | 60 | -1 | 0.0 | 0.0 | 0.00 | 0.00 | 0.06 | 10 | 998.2 |
| 20260506182203 | 60 | -1 | 0.0 | 0.0 | 0.00 | 0.00 | 0.06 | 10 | 998.2 |
| 20260506181700 | 59 | -1 | 0.0 | 0.0 | 0.00 | 0.00 | 0.06 | 10 | 998.2 |
| 20260506181200 | 60 | -1 | 0.0 | 0.0 | 0.00 | 0.00 | 0.06 | 10 | 998.1 |
| 20260506180659 | 60 | -1 | 2.6 | 0.0 | 0.00 | 0.00 | 0.06 | 10 | 998.2 |
| 20260506180158 | 61 | -1 | 0.0 | 0.0 | 0.00 | 0.00 | 0.06 | 9 | 998.1 |
| 20260506175658 | 61 | -1 | 0.0 | 0.0 | 0.00 | 0.00 | 0.06 | 9 | 998.0 |
| 20260506175157 | 62 | -1 | 0.0 | 0.0 | 0.00 | 0.00 | 0.06 | 8 | 998.0 |
| 20260506174656 | 63 | -1 | 2.6 | 4.3 | 0.00 | 0.00 | 0.03 | 8 | 997.9 |
| 20260506174155 | 66 | -1 | 3.5 | 4.3 | 0.00 | 0.00 | 0.01 | 7 | 997.5 |
| 20260506173655 | 66 | -1 | 0.0 | 0.0 | 0.00 | 0.00 | 0.01 | 7 | 997.2 |
| 20260506173154 | 66 | -1 | 0.0 | 0.0 | 0.00 | 0.00 | 0.01 | 7 | 997.2 |
| 20260506172653 | 65 | -1 | 0.0 | 0.0 | 0.00 | 0.00 | 0.01 | 6 | 997.1 |
| 20260506172152 | 67 | -1 | 0.0 | 0.0 | 0.00 | 0.00 | 0.01 | 6 | 997.0 |
| 20260506171652 | 67 | -1 | 0.0 | 0.0 | 0.00 | 0.00 | 0.01 | 6 | 997.0 |
| 20260506171151 | 68 | -1 | 0.0 | 0.0 | 0.00 | 0.00 | 0.01 | 6 | 996.6 |
| 20260506170650 | 67 | -1 | 0.0 | 0.0 | 0.00 | 0.00 | 0.01 | 6 | 996.8 |
| 20260506170150 | 66 | -1 | 0.0 | 0.0 | 0.00 | 0.00 | 0.01 | 6 | 996.8 |
| 20260506165649 | 66 | -1 | 0.0 | 0.0 | 0.00 | 0.00 | 0.01 | 6 | 997.0 |
| 20260506165148 | 65 | -1 | 0.0 | 0.0 | 0.00 | 0.00 | 0.01 | 6 | 997.0 |
| 20260506164647 | 67 | -1 | 0.0 | 0.0 | 0.00 | 0.00 | 0.01 | 6 | 996.9 |
| 20260506164147 | 71 | -1 | 3.5 | 0.0 | 0.00 | 0.00 | 0.01 | 6 | 996.1 |
| 20260506163646 | 75 | 180 | 0.0 | 2.6 | 0.00 | 0.00 | 0.00 | 4 | 995.9 |
| 20260506163145 | 76 | 180 | 0.0 | 0.0 | 0.00 | 0.00 | 0.00 | 4 | 995.7 |
| 20260506162644 | 76 | 180 | 0.0 | 0.0 | 0.00 | 0.00 | 0.00 | 4 | 995.7 |
| 20260506162144 | 74 | 180 | 0.0 | 0.0 | 0.00 | 0.00 | 0.00 | 4 | 996.0 |
| 20260506161643 | 74 | 180 | 2.6 | 3.5 | 0.00 | 0.00 | 0.00 | 4 | 996.1 |
| 20260506161142 | 74 | 180 | 2.6 | 3.5 | 0.00 | 0.00 | 0.00 | 4 | 996.3 |
| 20260506160641 | 75 | 180 | 2.6 | 4.3 | 0.00 | 0.00 | 0.00 | 4 | 996.2 |
| 20260506160141 | 74 | 180 | 2.6 | 5.2 | 0.00 | 0.00 | 0.00 | 4 | 996.3 |
| 20260506155640 | 76 | 180 | 2.6 | 7.8 | 0.00 | 0.00 | 0.00 | 4 | 996.1 |
| 20260506155139 | 77 | 180 | 3.5 | 6.1 | 0.00 | 0.00 | 0.00 | 4 | 996.0 |
| 20260506154638 | 75 | 180 | 2.6 | 5.2 | 0.00 | 0.00 | 0.00 | 4 | 996.2 |
| 20260506154138 | 74 | 180 | 0.0 | 2.6 | 0.00 | 0.00 | 0.00 | 4 | 996.5 |
| 20260506153637 | 73 | 180 | 2.6 | 3.5 | 0.00 | 0.00 | 0.00 | 4 | 996.7 |
| 20260506153136 | 71 | 180 | 2.6 | 5.2 | 0.00 | 0.00 | 0.00 | 5 | 997.1 |
| 20260506152636 | 70 | 180 | 4.3 | 8.7 | 0.00 | 0.00 | 0.00 | 5 | 997.5 |
| 20260506152135 | 70 | 180 | 6.1 | 11.3 | 0.00 | 0.00 | 0.00 | 5 | 997.6 |
| 20260506151634 | 73 | 180 | 6.1 | 16.5 | 0.00 | 0.00 | 0.00 | 5 | 997.2 |
| 20260506151133 | 74 | 180 | 6.1 | 15.6 | 0.00 | 0.00 | 0.00 | 4 | 997.1 |
| 20260506150633 | 76 | 180 | 2.6 | 7.8 | 0.00 | 0.00 | 0.00 | 3 | 996.8 |
| 20260506150132 | 78 | 180 | 2.6 | 5.2 | 0.00 | 0.00 | 0.00 | 3 | 996.6 |
| 20260506145631 | 79 | 180 | 2.6 | 4.3 | 0.00 | 0.00 | 0.00 | 3 | 996.3 |
| 20260506145130 | 79 | 180 | 0.0 | 0.0 | 0.00 | 0.00 | 0.00 | 3 | 996.4 |
| 20260506144630 | 78 | -1 | 2.6 | 2.6 | 0.00 | 0.00 | 0.00 | 3 | 996.4 |
| 20260506144129 | 78 | 180 | 2.6 | 0.0 | 0.00 | 0.00 | 0.00 | 3 | 996.4 |
| 20260506143628 | 78 | 180 | 3.5 | 5.2 | 0.00 | 0.00 | 0.00 | 3 | 996.5 |
| 20260506143128 | 79 | 180 | 3.5 | 5.2 | 0.00 | 0.00 | 0.00 | 3 | 996.4 |
| 20260506142627 | 79 | 180 | 0.0 | 0.0 | 0.00 | 0.00 | 0.00 | 3 | 996.3 |
| 20260506142126 | 77 | 180 | 4.3 | 7.0 | 0.00 | 0.00 | 0.00 | 3 | 996.7 |
| 20260506141625 | 78 | 180 | 0.0 | 2.6 | 0.00 | 0.00 | 0.00 | 3 | 996.5 |
| 20260506141125 | 77 | 180 | 2.6 | 7.0 | 0.00 | 0.00 | 0.00 | 3 | 996.7 |
| 20260506140624 | 79 | 180 | 3.5 | 6.1 | 0.00 | 0.00 | 0.00 | 3 | 996.5 |
| 20260506140123 | 80 | 180 | 3.5 | 5.2 | 0.00 | 0.00 | 0.00 | 3 | 996.4 |
| 20260506135623 | 79 | 180 | 2.6 | 5.2 | 0.00 | 0.00 | 0.00 | 3 | 996.5 |
| 20260506135122 | 81 | 180 | 3.5 | 5.2 | 0.00 | 0.00 | 0.00 | 3 | 996.2 |
| 20260506134621 | 81 | 180 | 2.6 | 6.1 | 0.00 | 0.00 | 0.00 | 3 | 996.2 |
| 20260506134120 | 80 | 180 | 2.6 | 5.2 | 0.00 | 0.00 | 0.00 | 3 | 996.5 |
| 20260506133620 | 78 | 180 | 3.5 | 7.0 | 0.00 | 0.00 | 0.00 | 3 | 996.7 |
| 20260506133119 | 79 | 180 | 6.1 | 10.4 | 0.00 | 0.00 | 0.00 | 3 | 996.7 |
| 20260506132618 | 81 | -1 | 4.3 | 8.7 | 0.00 | 0.00 | 0.00 | 3 | 996.1 |
| 20260506132118 | 79 | 180 | 4.3 | 7.8 | 0.00 | 0.00 | 0.00 | 3 | 996.6 |
| 20260506131617 | 78 | -1 | 3.5 | 6.1 | 0.00 | 0.00 | 0.00 | 3 | 996.8 |
| 20260506131116 | 80 | 180 | 5.2 | 8.7 | 0.00 | 0.00 | 0.00 | 3 | 996.7 |
| 20260506130615 | 78 | 180 | 4.3 | 8.7 | 0.00 | 0.00 | 0.00 | 3 | 997.0 |
| 20260506130115 | 78 | -1 | 4.3 | 8.7 | 0.00 | 0.00 | 0.00 | 3 | 997.2 |
| 20260506125614 | 78 | 180 | 5.2 | 11.3 | 0.00 | 0.00 | 0.00 | 3 | 997.3 |
| 20260506125113 | 81 | 180 | 6.1 | 14.8 | 0.00 | 0.00 | 0.00 | 3 | 996.7 |
| 20260506124612 | 81 | -1 | 4.3 | 10.4 | 0.00 | 0.00 | 0.00 | 3 | 996.6 |
| 20260506124112 | 80 | -1 | 5.2 | 9.6 | 0.00 | 0.00 | 0.00 | 3 | 997.0 |
| 20260506123611 | 79 | -1 | 6.1 | 12.2 | 0.00 | 0.00 | 0.00 | 3 | 997.2 |
| 20260506123110 | 77 | 180 | 4.3 | 9.6 | 0.00 | 0.00 | 0.00 | 4 | 997.5 |
| 20260506122610 | 78 | 157 | 3.5 | 6.1 | 0.00 | 0.00 | 0.00 | 4 | 997.5 |
| 20260506122109 | 77 | 180 | 5.2 | 13.9 | 0.00 | 0.00 | 0.00 | 3 | 997.7 |
| 20260506121608 | 79 | 180 | 4.3 | 9.6 | 0.00 | 0.00 | 0.00 | 3 | 997.3 |
| 20260506121107 | 79 | 180 | 5.2 | 12.2 | 0.00 | 0.00 | 0.00 | 3 | 997.1 |
| 20260506120607 | 76 | -1 | 7.8 | 13.9 | 0.00 | 0.00 | 0.00 | 4 | 997.8 |
| 20260506120106 | 78 | -1 | 6.1 | 12.2 | 0.00 | 0.00 | 0.00 | 4 | 997.3 |
| 20260506115605 | 78 | 180 | 5.2 | 13.0 | 0.00 | 0.00 | 0.00 | 3 | 997.3 |